TimeEDT,TemperatureF,Dew PointF,Humidity,Sea Level PressureIn,VisibilityMPH,Wind Direction,Wind SpeedMPH,Gust SpeedMPH,PrecipitationIn,Events,Conditions,WindDirDegrees,DateUTC
12:14 AM,57.2,55.2,93,29.99,10.0,ESE,5.8,-,N/A,,Overcast,120,2012-10-04 04:14:00
12:34 AM,57.4,54.5,90,29.99,10.0,ESE,3.5,-,N/A,,Overcast,110,2012-10-04 04:34:00
12:54 AM,57.2,54.3,90,29.99,10.0,ESE,4.6,-,N/A,,Overcast,110,2012-10-04 04:54:00
1:15 AM,57.2,55.0,92,29.98,10.0,ESE,3.5,-,N/A,,Overcast,120,2012-10-04 05:15:00
1:35 AM,56.3,54.7,94,29.98,5.0,ESE,4.6,-,N/A,,Overcast,110,2012-10-04 05:35:00
1:54 AM,55.9,54.5,95,29.98,7.0,Calm,Calm,-,N/A,,Overcast,0,2012-10-04 05:54:00
2:15 AM,55.8,54.5,96,29.97,5.0,East,4.6,-,N/A,,Overcast,90,2012-10-04 06:15:00
2:34 AM,55.8,54.5,96,29.97,5.0,East,3.5,-,N/A,,Overcast,90,2012-10-04 06:34:00
2:54 AM,55.9,54.9,96,29.97,2.0,ENE,4.6,-,N/A,,Overcast,70,2012-10-04 06:54:00
3:15 AM,56.1,54.9,96,29.96,1.2,Calm,Calm,-,N/A,,Overcast,0,2012-10-04 07:15:00
3:34 AM,56.3,55.0,96,29.96,1.0,Calm,Calm,-,N/A,,Overcast,0,2012-10-04 07:34:00
3:54 AM,55.4,54.5,97,29.95,0.5,NE,3.5,-,N/A,Fog,Fog,40,2012-10-04 07:54:00
4:15 AM,55.4,54.1,96,29.94,2.0,NE,4.6,-,N/A,Rain,Rain,40,2012-10-04 08:15:00
4:34 AM,55.0,54.0,96,29.94,4.0,ENE,5.8,-,N/A,,Overcast,60,2012-10-04 08:34:00
4:54 AM,55.0,54.0,96,29.94,4.0,NE,3.5,-,N/A,,Overcast,40,2012-10-04 08:54:00
5:15 AM,54.9,53.8,96,29.94,3.0,Calm,Calm,-,N/A,,Overcast,0,2012-10-04 09:15:00
5:34 AM,54.7,53.6,96,29.94,5.0,NNE,4.6,-,N/A,,Overcast,30,2012-10-04 09:34:00
5:54 AM,54.7,53.6,96,29.94,4.0,NNE,4.6,-,N/A,,Overcast,20,2012-10-04 09:54:00
6:15 AM,54.7,53.6,96,29.94,5.0,NNE,4.6,-,N/A,,Overcast,30,2012-10-04 10:15:00
6:34 AM,54.5,53.6,97,29.93,5.0,NE,4.6,-,N/A,,Overcast,40,2012-10-04 10:34:00
6:54 AM,54.5,53.6,97,29.93,4.0,NE,4.6,-,N/A,,Overcast,50,2012-10-04 10:54:00
7:15 AM,54.5,53.6,97,29.93,3.0,NNE,4.6,-,N/A,Rain,Light Rain,20,2012-10-04 11:15:00
7:34 AM,54.7,53.8,97,29.93,2.0,Calm,Calm,-,N/A,,Overcast,0,2012-10-04 11:34:00
7:54 AM,54.7,53.8,97,29.93,1.5,Calm,Calm,-,N/A,,Overcast,0,2012-10-04 11:54:00
8:15 AM,54.5,53.6,97,29.94,0.5,Calm,Calm,-,N/A,Fog,Fog,0,2012-10-04 12:15:00
8:34 AM,54.5,53.6,97,29.93,0.2,Calm,Calm,-,N/A,Fog,Fog,0,2012-10-04 12:34:00
8:54 AM,54.5,53.6,97,29.94,0.2,Calm,Calm,-,N/A,Fog,Fog,0,2012-10-04 12:54:00
9:15 AM,54.7,53.8,97,29.93,0.2,Calm,Calm,-,N/A,Fog,Fog,0,2012-10-04 13:15:00
9:34 AM,55.4,54.5,97,29.92,1.0,Calm,Calm,-,N/A,,Overcast,0,2012-10-04 13:34:00
9:54 AM,56.5,55.6,97,29.93,7.0,West,5.8,-,N/A,,Overcast,280,2012-10-04 13:54:00
10:15 AM,54.9,54.0,97,29.93,0.2,Calm,Calm,-,N/A,Fog,Fog,0,2012-10-04 14:15:00
10:34 AM,55.2,54.3,97,29.94,0.2,West,4.6,-,N/A,Fog,Fog,270,2012-10-04 14:34:00
10:54 AM,55.8,54.9,97,29.94,1.5,Calm,Calm,-,N/A,,Overcast,0,2012-10-04 14:54:00
11:15 AM,56.3,55.4,97,29.93,7.0,Calm,Calm,-,N/A,,Overcast,0,2012-10-04 15:15:00
11:55 AM,57.2,55.8,95,29.93,10.0,SSW,3.5,-,N/A,,Overcast,200,2012-10-04 15:55:00
12:14 PM,58.1,55.4,91,29.93,10.0,SW,5.8,-,N/A,,Mostly Cloudy,230,2012-10-04 16:14:00
12:34 PM,58.8,55.0,87,29.93,10.0,SW,8.1,-,N/A,,Scattered Clouds,220,2012-10-04 16:34:00
12:55 PM,59.9,56.1,87,29.92,10.0,SW,3.5,-,N/A,,Scattered Clouds,220,2012-10-04 16:55:00
1:14 PM,61.3,56.3,83,29.92,10.0,WSW,4.6,-,N/A,,Clear,240,2012-10-04 17:14:00
1:34 PM,61.9,55.9,81,29.90,10.0,WSW,5.8,-,N/A,,Clear,250,2012-10-04 17:34:00
1:55 PM,62.6,56.1,79,29.90,10.0,WSW,4.6,-,N/A,,Clear,250,2012-10-04 17:55:00
2:14 PM,63.0,55.4,76,29.89,10.0,Calm,Calm,-,N/A,,Clear,0,2012-10-04 18:14:00
2:34 PM,63.1,55.0,75,29.89,10.0,West,4.6,-,N/A,,Clear,260,2012-10-04 18:34:00
2:55 PM,63.9,54.9,72,29.88,10.0,Calm,Calm,-,N/A,,Clear,0,2012-10-04 18:55:00
3:14 PM,64.9,54.7,69,29.88,10.0,SSW,3.5,-,N/A,,Clear,210,2012-10-04 19:14:00
3:34 PM,65.3,55.2,70,29.88,10.0,SW,3.5,-,N/A,,Clear,220,2012-10-04 19:34:00
3:55 PM,64.8,54.7,70,29.87,10.0,Calm,Calm,-,N/A,,Clear,0,2012-10-04 19:55:00
4:14 PM,64.0,55.8,74,29.86,10.0,Calm,Calm,-,N/A,,Clear,0,2012-10-04 20:14:00
4:34 PM,62.2,55.0,77,29.85,10.0,East,4.6,-,N/A,,Clear,90,2012-10-04 20:34:00
5:14 PM,61.0,55.2,81,29.85,10.0,ESE,4.6,-,N/A,,Clear,120,2012-10-04 21:14:00
5:34 PM,60.3,55.2,83,29.85,10.0,ESE,4.6,-,N/A,,Scattered Clouds,110,2012-10-04 21:34:00
5:55 PM,61.0,55.6,82,29.85,10.0,Calm,Calm,-,N/A,,Overcast,0,2012-10-04 21:55:00
6:14 PM,59.7,55.4,86,29.85,10.0,ESE,3.5,-,N/A,,Overcast,120,2012-10-04 22:14:00
6:34 PM,60.8,54.9,81,29.85,10.0,SE,6.9,-,N/A,,Overcast,130,2012-10-04 22:34:00
6:55 PM,62.1,54.5,76,29.84,10.0,SE,5.8,-,N/A,,Overcast,130,2012-10-04 22:55:00
7:14 PM,60.8,54.7,80,29.83,10.0,SSE,5.8,-,N/A,,Overcast,150,2012-10-04 23:14:00
7:35 PM,63.9,53.6,69,29.83,10.0,South,8.1,-,N/A,,Overcast,170,2012-10-04 23:35:00
7:54 PM,63.7,53.6,70,29.82,10.0,SSW,6.9,-,N/A,,Overcast,200,2012-10-04 23:54:00
8:14 PM,64.6,53.1,66,29.81,10.0,SSW,10.4,-,N/A,,Overcast,210,2012-10-05 00:14:00
8:35 PM,64.4,53.1,67,29.82,10.0,SW,8.1,-,N/A,,Overcast,220,2012-10-05 00:35:00
8:55 PM,62.2,54.1,75,29.82,10.0,WSW,8.1,-,N/A,,Overcast,240,2012-10-05 00:55:00
9:14 PM,63.0,53.1,70,29.82,10.0,SW,16.1,23.0,N/A,,Overcast,230,2012-10-05 01:14:00
9:35 PM,63.5,51.8,66,29.82,10.0,SW,16.1,26.5,N/A,,Mostly Cloudy,230,2012-10-05 01:35:00
9:54 PM,62.2,51.1,67,29.83,10.0,SW,18.4,33.4,N/A,,Mostly Cloudy,230,2012-10-05 01:54:00
10:14 PM,61.2,52.7,74,29.83,10.0,WSW,16.1,29.9,N/A,,Scattered Clouds,240,2012-10-05 02:14:00
10:35 PM,60.1,48.4,65,29.83,10.0,WSW,13.8,25.3,N/A,,Clear,240,2012-10-05 02:35:00
10:54 PM,59.4,48.2,67,29.84,10.0,WSW,15.0,25.3,N/A,,Clear,240,2012-10-05 02:54:00
11:14 PM,58.8,46.8,64,29.84,10.0,WSW,10.4,27.6,N/A,,Clear,240,2012-10-05 03:14:00
11:34 PM,59.0,44.6,59,29.84,10.0,WSW,17.3,24.2,N/A,,Clear,250,2012-10-05 03:34:00
11:54 PM,58.1,43.2,58,29.84,10.0,West,19.6,26.5,N/A,,Clear,260,2012-10-05 03:54:00